Location: Noverd
(38.0910°N, 121.6877°W)
Time: 05:56:27
(UTC+00:00)

Envisat - Visible Passes

Search period start: 14 April 2026 00:00
Search period end: 24 April 2026 00:00
Orbit: 761 x 762 km, 98.4° (Epoch: 13 April)

Date Brightness Start Highest point End Pass type
(mag) Time Alt. Az. Time Alt. Az. Time Alt. Az.
14 Apr 3.9 10:23:03 10° NNE 10:26:56 44° ENE 10:26:56 44° ENE visible
14 Apr 4.6 12:03:13 10° NNW 12:06:28 17° WNW 12:07:03 17° WNW visible
15 Apr 5.1 09:46:05 10° NE 09:48:47 20° ENE 09:48:47 20° ENE visible
15 Apr 3.6 11:24:20 10° N 11:28:54 38° WNW 11:28:54 38° WNW visible
16 Apr 3.1 10:46:15 10° NNE 10:50:45 70° NNE 10:50:45 70° NNE visible
16 Apr 5.1 12:28:43 10° NW 12:29:28 10° WNW 12:30:13 10° WNW visible
17 Apr 4.3 10:08:46 10° NNE 10:12:36 35° ENE 10:12:36 35° ENE visible
17 Apr 4.2 11:48:10 10° NNW 11:52:08 24° WNW 11:52:43 23° WNW visible
18 Apr 5.4 09:32:19 10° NE 09:34:26 15° E 09:34:26 15° E visible
18 Apr 3.2 11:09:40 10° N 11:14:34 53° WNW 11:14:34 53° WNW visible
19 Apr 3.3 10:31:48 10° NNE 10:36:24 62° ENE 10:36:24 62° ENE visible
19 Apr 4.8 12:12:31 10° NNW 12:15:11 14° WNW 12:16:32 13° W visible
20 Apr 4.7 09:54:36 10° NE 09:58:14 26° E 09:58:14 26° E visible
20 Apr 3.8 11:33:19 10° N 11:37:46 32° WNW 11:38:22 31° W visible
21 Apr 5.7 09:19:18 10° ENE 09:20:05 11° E 09:20:05 11° E visible
21 Apr 2.8 10:55:05 10° N 11:00:08 74° WNW 11:00:12 74° W visible
22 Apr 3.8 10:17:26 10° NNE 10:22:02 46° E 10:22:02 46° E visible
22 Apr 4.5 11:57:19 10° NNW 12:00:51 20° WNW 12:02:10 18° W visible
23 Apr 5.1 09:40:38 10° NE 09:43:53 20° E 09:43:53 20° E visible
23 Apr 3.4 11:18:35 10° N 11:23:22 43° WNW 11:24:01 41° W visible
